Weather in Muravlyanka

Russia / Ryazan Oblast     53°38′41″N   41°11′36″E
temp.,
°C
wind,
m/s
gust,
m/s
humid.,
%
clouds,
%
prec.,
mm/h
press.,
hPa
HPBL,
m
27 february, sat
sat2700:00+1w7159186 0.0 1003685
03:00+1w7149092 0.0 1003786
06:00+1w71492100 0.1 1001742
09:00+1w9159598 0.2 1001942
12:00−5nw71187100 0.8 1003872
15:00−8nnw71187100 0.9 1007745
18:00−9nnw51090100 0.1 1010560
21:00−11nnw3995100 0.1 1012294
28 february, sun
sun2800:00−13nw379576 0.0 1013167
03:00−14nw359643 0.0 1014117
06:00−14nw23970 0.0 101572
09:00−12nw359538 0.0 1015243
12:00−9nw349097 0.0 1015399
15:00−7nw359098 0.1 1016491
18:00−9nw2295100 0.1 101622
21:00−7nne1296100 0.1 101986
1 march, mon
mon100:00−8nne1196100 0.1 102021
03:00−8ne0096100 0.1 102221
06:00−10nnw1297100 0.1 102321
09:00−10n119596 0.1 102444
12:00−6w128845 0.0 1024292
15:00−5wsw349471 0.0 1024332
18:00−5wsw379697 0.0 1022289
21:00−4wsw5109598 0.1 1021440
2 march, tue
tue200:00−3sw61195100 0.1 1018436
03:00−1wsw71496100 0.7 1014616
06:000w71495100 1.4 1011788
09:000wnw71398100 2.1 1009818
12:00+1nw6129498 0.3 1009854
15:00+1nw6108696 0.4 1009996
18:00−1nw4128751 0.1 1010613
21:00−1nw5129372 0.1 1011682
3 march, wed
wed300:00−3nw5139199 0.1 1011599
03:00−3nw5119496 0.1 1012618
06:00−4nw5119498 0.1 1013504
09:00−3nw6108798 0.2 1014779
12:00−2nw7109190 0.1 1015802
15:00−2nw698795 0.2 1016895
18:00−2nw51089100 0.1 1016679
21:00−3wnw5109198 0.1 1018382